Temperature
20 18 18 18 19 19 20 19 19 19 20 20 19 19 19 19 19 19 20 20 20 20 20 20 20 20 20 19 19 19 18 18 17 17 17 16 16 16 15 15 15 15 15 14
18 18 19 20 20 20 20 19 19 19 20 20 19 19 19 19 19 19 20 20 20 20 20 20 20 20 20 19 19 19 18 18 18 17 17 16 16 16 15 15 15 15 15 14
18 19 21 21 21 20 20 19 19 19 20 19 19 19 18 19 19 20 20 20 20 20 20 20 20 20 20 19 19 19 18 18 18 17 17 16 16 16 15 15 15 15 15 15
19 20 21 21 21 20 19 20 20 20 18 18 19 17 18 18 19 19 19 20 20 20 21 20 20 20 20 19 19 19 18 18 18 17 17 16 16 16 15 15 15 15 15 15
19 20 20 21 21 21 20 20 20 19 18 18 18 17 18 18 18 18 19 20 20 21 20 20 20 20 20 19 19 19 18 18 18 17 17 16 16 16 16 15 15 15 15 15
20 21 21 21 21 21 20 19 19 17 17 18 18 18 18 17 18 19 19 20 20 20 20 20 20 20 20 19 19 19 18 18 18 17 17 16 16 16 16 15 15 15 15 15
20 21 21 21 20 20 19 17 17 17 17 17 18 18 18 19 19 19 19 19 20 20 20 20 20 20 20 19 19 19 18 18 18 17 17 17 16 16 16 16 15 15 15 15
19 19 21 21 20 19 19 18 17 17 17 17 18 18 18 19 20 20 20 20 20 20 20 20 20 20 20 19 19 19 18 18 18 17 17 17 16 16 16 16 15 15 15 15
19 19 21 22 21 20 18 17 17 17 18 17 18 19 19 19 19 19 19 19 19 20 20 20 20 20 19 19 19 19 18 18 18 17 17 17 16 16 16 16 15 15 15 15
19 19 21 22 21 20 19 18 16 17 18 18 18 18 18 18 18 18 18 18 19 19 20 20 20 19 19 19 19 18 18 18 17 17 17 17 16 16 16 16 16 15 15 15
20 19 20 21 21 20 20 19 18 16 17 17 17 18 19 18 18 18 18 19 19 19 19 19 19 19 19 19 18 18 18 18 17 17 17 17 16 16 16 16 16 15 15 15
19 18 18 20 21 21 21 20 18 18 17 16 17 17 19 18 18 18 18 19 19 19 19 19 19 19 19 19 18 18 18 17 17 17 17 16 16 16 16 16 15 15 15 15
20 18 18 19 20 21 21 21 19 17 16 16 16 18 18 18 18 18 19 19 19 19 19 19 19 19 19 18 18 18 18 17 17 17 17 16 16 16 16 16 15 15 15 15
19 18 18 19 19 20 21 21 20 18 17 17 17 18 18 18 17 17 18 19 19 19 19 19 18 18 18 18 18 18 18 17 17 17 17 16 16 16 16 15 15 15 15 15
19 19 20 20 21 21 21 21 21 20 18 18 18 18 18 17 17 18 18 18 18 18 18 18 18 18 18 18 18 17 17 17 17 17 16 16 16 16 16 15 15 15 15 15
18 19 20 20 21 21 21 21 21 20 20 19 18 18 18 18 18 18 18 18 18 18 18 18 18 18 18 18 17 17 17 17 17 16 16 16 16 16 15 15 15 15 15 15
18 19 19 18 20 21 20 21 20 20 20 19 18 17 17 17 17 17 18 18 18 18 18 18 18 18 17 17 17 17 17 17 16 16 16 16 15 15 15 15 15 15 14 14
18 17 16 17 19 20 19 20 20 20 19 19 18 17 17 18 18 18 18 18 18 18 18 18 17 17 17 17 17 17 16 16 16 16 15 15 15 15 15 15 14 14 14 14
18 17 16 16 18 18 20 20 20 19 18 18 18 17 17 18 17 17 18 18 18 18 18 17 17 17 17 17 16 16 16 15 15 15 15 15 15 15 14 14 14 14 14 14
17 16 16 16 18 18 19 20 20 19 17 18 18 17 17 17 15 15 17 18 18 17 17 17 17 16 16 16 16 16 15 15 15 14 14 14 14 14 14 14 14 13 13 13
18 16 16 16 17 17 18 19 20 18 17 18 18 18 18 17 16 17 17 17 17 17 17 17 16 16 16 15 15 15 15 14 14 14 14 14 14 13 13 13 13 13 13 13
16 16 15 15 16 17 18 19 18 17 18 18 18 18 18 18 17 17 17 17 17 16 16 16 16 15 15 15 15 14 14 14 14 13 13 13 13 13 13 13 13 13 12 12
15 16 14 15 15 16 17 18 19 19 18 18 18 18 18 17 17 17 16 16 16 16 16 15 15 15 14 14 14 14 13 13 13 13 13 13 13 12 12 12 12 12 12 12
15 14 14 14 15 16 17 18 19 19 19 18 18 18 18 17 16 16 16 16 15 15 15 15 14 14 14 13 13 13 13 13 12 12 12 12 12 12 12 12 12 11 11 11
15 14 13 13 14 15 16 17 18 18 18 17 17 17 17 16 16 15 15 15 15 14 14 14 14 13 13 13 12 12 12 12 12 12 12 11 11 11 11 11 11 11 11 10
14 14 14 14 15 14 15 16 17 17 17 17 16 16 16 16 15 15 15 14 14 14 13 13 13 13 12 12 12 12 12 11 11 11 11 11 11 11 11 10 10 10 10 10
Wind_Speed
1 3 2 5 6 5 3 3 2 4 3 4 5 4 3 4 6 7 7 7 6 6 5 5 6 7 7 6 7 7 6 5 5 3 3 3 2 1 2 1 2 3 3 4
3 2 7 5 3 3 3 3 2 0 2 4 4 2 1 3 5 7 8 8 7 5 4 4 4 5 6 6 7 6 6 5 5 3 3 2 2 1 0 1 2 1 2 2
4 5 4 4 3 3 2 4 4 4 3 3 4 3 2 1 1 3 5 7 7 8 8 6 5 5 6 7 7 7 7 6 5 4 3 3 3 3 3 2 2 2 1 1
3 4 1 3 2 4 2 4 5 5 5 0 2 2 3 2 2 3 4 6 7 7 7 6 6 6 6 7 6 7 6 5 4 5 5 4 3 1 2 2 2 3 2 1
3 2 2 2 2 4 3 4 4 4 4 2 2 3 4 1 3 5 6 7 7 8 8 8 7 7 6 6 6 7 6 5 4 5 5 5 3 2 1 1 1 2 2 2
3 2 3 3 2 4 5 6 6 5 4 2 1 3 3 3 5 5 5 6 6 7 7 7 5 5 5 5 6 6 6 4 4 4 4 4 4 2 1 1 1 2 2 2
2 2 1 3 4 4 6 6 4 3 3 2 2 2 4 5 5 6 7 7 6 7 8 7 6 6 5 6 6 6 6 4 4 4 4 4 3 3 2 1 1 1 1 2
1 2 3 3 4 5 3 6 6 4 3 1 1 1 4 2 3 6 6 7 7 7 7 7 7 7 6 6 6 6 6 4 4 4 3 3 3 2 1 1 1 2 2 3
3 3 2 3 4 7 5 3 5 5 3 2 0 0 3 3 6 6 7 7 7 6 6 6 5 5 5 6 6 6 6 4 4 4 3 3 2 2 2 1 1 1 1 2
5 2 3 2 4 2 6 6 5 4 4 2 1 2 4 5 5 6 6 7 6 6 5 5 5 4 4 4 4 4 5 5 4 3 3 2 2 2 2 1 1 1 2 1
4 3 1 1 4 6 4 4 4 3 4 5 3 4 4 8 8 9 8 7 8 7 6 5 4 3 3 3 3 3 3 3 3 3 2 2 2 2 1 1 1 2 2 2
3 5 1 5 4 5 5 5 6 5 2 4 4 4 2 8 7 9 8 6 6 6 5 5 4 4 3 3 2 2 2 2 3 3 2 2 2 1 1 1 2 1 2 2
4 5 3 4 5 2 1 3 5 6 5 4 5 3 2 6 7 7 8 7 5 5 5 4 4 3 3 2 2 2 2 2 2 2 2 1 1 1 2 2 2 1 1 2
5 4 6 7 6 4 2 2 5 6 5 4 5 6 3 7 8 7 7 7 6 5 5 5 3 2 2 2 2 2 1 1 2 2 2 1 1 2 2 2 2 1 1 1
4 2 2 4 4 3 3 4 5 5 8 7 8 9 10 10 10 9 8 8 7 6 5 4 3 2 1 1 1 1 0 1 2 2 1 1 1 1 1 1 2 1 1 2
3 2 1 2 1 2 1 2 4 4 5 7 9 5 5 7 7 7 8 9 8 6 5 4 3 3 2 1 1 1 1 1 2 2 1 0 1 1 1 2 2 2 2 3
3 4 3 1 3 3 2 4 5 5 6 10 8 7 9 9 9 10 9 9 8 6 5 4 3 2 1 1 2 2 1 2 2 1 0 1 1 1 2 2 2 2 3 3
6 5 4 1 3 1 6 3 6 7 3 5 7 9 12 11 8 6 7 9 7 6 5 4 3 2 1 2 2 2 3 3 2 2 1 1 1 1 2 2 2 3 3 3
6 7 4 3 2 2 4 1 4 7 1 4 9 10 10 11 9 4 2 6 7 6 5 4 3 3 3 3 2 4 3 3 2 2 2 2 1 1 1 2 3 3 2 3
5 6 6 4 4 5 6 4 2 8 2 3 9 13 11 9 6 4 3 5 6 5 5 4 4 4 4 2 3 5 4 3 2 2 2 2 1 1 2 3 3 2 2 3
3 4 5 4 3 5 5 3 4 5 7 6 9 12 10 7 7 6 6 6 6 5 5 5 5 4 2 2 4 4 3 2 3 2 2 2 2 2 2 2 2 2 2 3
7 5 5 5 4 6 3 3 6 6 4 7 8 8 8 8 8 8 7 7 6 6 5 5 5 3 2 3 4 3 2 3 2 2 2 3 3 3 3 2 3 3 2 3
4 6 6 6 5 4 2 3 4 6 8 6 7 8 11 10 8 7 6 6 5 5 4 4 4 3 3 2 3 2 2 2 2 3 3 3 3 3 2 2 3 3 3 3
1 3 5 3 0 1 3 5 6 7 8 8 9 10 10 9 8 7 6 5 4 3 4 3 4 3 2 2 1 0 2 1 2 2 3 3 3 4 4 3 2 3 3 4
2 3 4 3 2 4 3 5 8 10 11 11 10 9 9 10 8 6 5 4 4 3 2 3 3 2 0 1 1 2 1 1 2 2 3 3 3 4 4 4 4 4 5 5
2 4 6 6 8 6 5 4 8 11 10 10 10 8 7 7 7 6 5 4 4 3 3 3 2 1 0 1 2 3 2 1 1 2 3 3 3 4 4 4 6 7 7 10
Wind_Direction
74 80 212 221 199 188 157 146 182 237 211 130 141 153 169 151 145 155 166 169 171 178 171 154 149 147 143 142 139 138 134 131 118 104 100 88 72 53 45 41 81 86 70 53
50 250 237 229 216 168 147 140 184 285 116 124 116 96 193 162 173 175 179 178 175 170 153 158 152 146 147 150 147 142 142 143 137 133 137 139 138 129 99 359 31 59 60 32
186 244 238 201 188 166 175 169 171 148 83 68 91 26 339 251 189 183 179 176 174 173 173 175 165 160 150 152 157 154 153 150 143 130 103 77 57 37 20 4 336 312 322 358
215 252 197 155 171 158 187 189 158 138 120 102 113 155 286 235 200 197 191 179 182 179 172 171 167 164 164 165 158 147 148 146 144 131 124 125 126 154 237 247 273 301 306 291
248 211 169 159 168 141 166 147 125 121 116 77 49 114 288 243 195 213 202 189 186 177 169 167 166 167 163 155 149 146 141 143 144 136 138 133 138 190 245 285 308 320 320 296
245 211 168 159 129 128 121 88 65 56 73 65 240 134 263 230 207 196 192 185 180 174 164 157 149 136 131 132 135 135 138 145 146 138 142 148 160 172 170 318 316 316 312 313
347 327 194 135 96 66 90 91 65 31 29 254 219 122 247 242 199 174 173 176 169 161 151 145 142 141 142 140 140 139 144 150 151 139 143 156 165 166 182 223 241 270 293 293
120 288 232 169 152 151 138 131 147 162 178 249 25 178 260 252 148 141 143 142 140 143 150 157 163 160 157 155 149 145 152 159 166 158 161 175 170 163 188 205 205 232 244 260
170 250 258 173 142 136 131 156 166 134 128 105 180 145 350 59 97 114 124 124 136 141 146 151 153 159 165 164 164 161 158 161 174 180 176 182 183 179 197 211 213 252 271 282
158 188 254 198 95 66 150 151 109 119 139 133 138 203 199 180 153 136 137 143 148 144 141 143 146 155 160 165 163 156 159 174 179 174 178 177 192 194 190 170 236 286 296 306
155 143 275 153 187 185 161 142 133 126 149 143 164 258 220 184 172 155 155 155 154 151 149 148 149 154 144 131 141 152 167 172 183 184 180 158 184 195 173 169 247 272 302 307
154 126 188 244 251 177 161 170 149 145 160 137 142 259 285 161 153 147 145 146 147 145 144 138 132 120 116 122 124 139 164 179 191 182 165 169 180 182 188 229 258 283 308 303
133 117 90 358 347 353 156 176 153 132 113 135 143 237 11 124 127 137 140 141 135 128 120 113 110 116 129 137 136 132 145 171 168 150 141 142 168 194 227 241 253 272 298 321
119 118 159 183 209 202 203 192 159 130 133 156 178 168 165 148 144 147 147 144 136 132 128 119 117 124 134 139 141 145 149 155 143 133 131 147 212 220 234 244 244 251 268 300
100 118 191 223 221 172 185 193 173 155 162 161 176 170 187 174 162 160 149 136 125 120 117 123 136 134 114 105 123 151 126 96 110 105 102 252 268 269 289 276 262 272 281 282
99 129 71 348 313 112 124 178 159 151 142 139 136 169 186 152 130 132 139 134 128 128 126 128 127 118 104 127 148 114 92 103 102 106 118 352 29 16 331 298 284 296 296 294
137 130 106 265 311 53 306 228 168 148 147 146 162 184 150 139 149 158 152 141 141 142 137 128 126 129 138 146 136 133 154 111 96 94 32 14 25 341 316 330 333 301 291 296
141 120 123 125 52 182 253 266 149 135 139 147 146 153 157 154 150 144 149 144 143 138 130 126 119 105 85 79 93 95 86 85 78 52 1 339 343 316 318 334 312 296 295 288
145 134 120 122 138 278 296 274 149 134 135 150 142 144 137 122 93 63 140 143 147 144 138 135 131 115 85 67 87 85 68 61 53 12 331 311 285 307 327 315 302 290 297 297
92 105 118 126 150 214 240 270 144 107 131 225 146 145 143 126 131 203 181 131 123 119 119 115 105 87 77 55 77 78 64 50 13 313 298 304 310 283 276 274 281 292 286 287
96 86 128 149 184 249 255 253 111 137 211 197 159 152 150 155 170 165 138 117 117 112 109 104 97 89 83 72 81 73 48 357 302 308 335 345 327 297 282 287 292 299 299 309
162 155 165 146 169 240 262 130 162 196 159 147 145 143 133 125 119 122 124 121 116 107 98 99 95 80 54 67 84 70 4 312 329 357 2 345 331 325 339 321 309 305 297 302
167 180 168 172 200 250 242 160 148 134 125 123 125 127 126 120 122 124 127 127 121 114 107 100 103 84 44 41 84 81 311 321 6 18 357 338 335 332 333 321 310 314 311 301
319 105 110 105 347 34 82 92 94 107 112 115 121 123 122 122 126 126 126 128 124 114 110 106 101 88 37 6 36 345 303 344 37 10 339 333 331 322 321 315 306 303 297 295
217 115 108 115 158 88 58 104 113 103 102 104 104 108 117 120 122 124 124 129 134 125 112 113 116 116 55 351 351 335 337 34 27 344 326 326 323 313 310 306 288 281 269 265
225 163 160 192 198 163 178 165 126 116 116 119 112 98 101 114 121 115 116 122 124 124 118 110 105 106 17 355 338 328 329 26 23 329 319 314 313 311 309 309 311 297 287 293
Height
1500 1505 1509 1506 1505 1507 1509 1513 1516 1512 1507 1510 1514 1515 1514 1514 1515 1516 1518 1519 1521 1523 1525 1527 1528 1529 1531 1532 1533 1533 1534 1534 1534 1535 1535 1535 1534 1534 1533 1532 1531 1530 1529 1528
1506 1508 1502 1500 1501 1504 1508 1514 1515 1511 1507 1511 1516 1517 1514 1514 1515 1516 1517 1518 1520 1523 1525 1526 1528 1529 1530 1531 1532 1533 1534 1534 1535 1535 1535 1535 1534 1534 1533 1532 1532 1530 1529 1528
1507 1503 1497 1499 1502 1506 1509 1512 1513 1513 1511 1511 1516 1522 1519 1516 1515 1516 1517 1518 1519 1521 1523 1525 1527 1528 1529 1531 1532 1533 1534 1535 1535 1535 1535 1535 1534 1534 1533 1533 1532 1531 1529 1528
1502 1498 1497 1499 1502 1504 1511 1505 1507 1510 1519 1525 1522 1536 1524 1518 1517 1516 1517 1518 1519 1520 1522 1524 1525 1527 1529 1530 1532 1533 1534 1535 1535 1535 1535 1535 1534 1534 1533 1533 1532 1531 1529 1528
1501 1497 1498 1500 1500 1500 1506 1503 1507 1511 1519 1526 1526 1533 1529 1519 1520 1517 1516 1516 1518 1519 1521 1523 1525 1526 1528 1530 1531 1533 1534 1534 1535 1535 1535 1535 1534 1534 1533 1533 1532 1531 1530 1528
1497 1495 1496 1497 1497 1498 1501 1507 1512 1518 1525 1536 1529 1534 1533 1523 1517 1515 1515 1515 1516 1518 1521 1523 1525 1526 1528 1530 1531 1532 1533 1534 1534 1535 1535 1534 1534 1534 1533 1533 1532 1531 1530 1528
1501 1497 1494 1495 1500 1502 1505 1518 1533 1537 1542 1540 1526 1530 1529 1514 1510 1511 1512 1514 1516 1518 1520 1522 1524 1526 1527 1529 1530 1532 1533 1533 1534 1534 1534 1534 1534 1533 1533 1532 1531 1531 1530 1528
1510 1510 1497 1494 1499 1505 1508 1516 1533 1543 1544 1539 1528 1531 1521 1509 1508 1509 1511 1514 1516 1518 1520 1522 1524 1525 1527 1529 1530 1531 1532 1533 1533 1534 1534 1534 1534 1533 1533 1532 1531 1530 1529 1528
1509 1508 1494 1492 1493 1499 1509 1516 1516 1527 1531 1538 1534 1525 1517 1510 1510 1511 1513 1515 1517 1519 1521 1522 1524 1526 1527 1528 1530 1531 1531 1532 1533 1533 1533 1534 1533 1533 1532 1532 1531 1530 1529 1528
1499 1506 1497 1493 1494 1498 1501 1507 1519 1527 1537 1543 1535 1530 1529 1518 1515 1514 1514 1516 1518 1520 1521 1523 1524 1526 1527 1528 1529 1530 1531 1532 1532 1532 1533 1533 1533 1532 1532 1531 1531 1530 1529 1528
1494 1504 1502 1497 1499 1502 1503 1507 1513 1523 1527 1540 1544 1537 1513 1514 1512 1513 1515 1516 1518 1520 1521 1523 1525 1526 1527 1528 1529 1530 1530 1531 1531 1532 1532 1532 1532 1532 1531 1531 1530 1529 1528 1528
1492 1503 1509 1501 1492 1490 1494 1499 1508 1522 1527 1530 1536 1534 1507 1509 1510 1512 1515 1517 1519 1520 1522 1523 1525 1526 1527 1528 1528 1529 1529 1530 1530 1531 1531 1531 1531 1531 1530 1530 1529 1528 1528 1527
1490 1502 1514 1513 1506 1497 1495 1495 1500 1509 1521 1529 1535 1530 1510 1510 1512 1513 1515 1517 1519 1520 1522 1524 1525 1526 1527 1527 1528 1528 1529 1529 1529 1530 1530 1530 1530 1529 1529 1529 1528 1527 1526 1525
1487 1499 1508 1514 1508 1499 1497 1495 1496 1506 1521 1525 1523 1521 1515 1513 1513 1515 1516 1517 1519 1521 1522 1524 1525 1526 1527 1527 1528 1528 1528 1528 1529 1529 1529 1528 1528 1528 1528 1527 1527 1526 1525 1524
1487 1498 1496 1495 1491 1491 1492 1493 1494 1499 1506 1515 1514 1515 1512 1511 1511 1513 1515 1517 1519 1521 1523 1524 1525 1526 1527 1527 1527 1528 1528 1528 1528 1528 1527 1527 1527 1527 1527 1526 1525 1524 1524 1523
1489 1496 1496 1497 1491 1491 1494 1492 1493 1495 1498 1504 1508 1512 1507 1509 1511 1514 1516 1517 1519 1521 1523 1524 1525 1526 1526 1526 1527 1527 1527 1527 1527 1527 1526 1526 1525 1525 1524 1524 1523 1523 1522 1521
1491 1495 1502 1507 1497 1494 1503 1494 1493 1496 1495 1500 1508 1508 1506 1510 1511 1513 1515 1517 1519 1520 1522 1523 1524 1525 1526 1526 1526 1526 1526 1526 1526 1526 1525 1524 1524 1523 1522 1522 1521 1520 1519 1519
1489 1496 1505 1508 1504 1514 1503 1487 1487 1492 1495 1495 1497 1501 1503 1506 1510 1513 1515 1516 1518 1520 1521 1523 1524 1525 1525 1526 1526 1526 1526 1525 1525 1524 1523 1523 1522 1521 1520 1519 1519 1518 1517 1516
1482 1492 1504 1512 1514 1509 1497 1489 1489 1494 1500 1496 1497 1500 1504 1507 1511 1515 1516 1517 1518 1520 1521 1523 1524 1524 1525 1525 1525 1525 1525 1524 1523 1523 1522 1521 1520 1519 1518 1517 1516 1515 1514 1513
1483 1487 1501 1511 1513 1515 1499 1488 1486 1492 1505 1497 1496 1499 1503 1505 1515 1517 1516 1517 1518 1520 1521 1522 1523 1524 1524 1524 1524 1524 1523 1523 1522 1521 1520 1519 1518 1517 1516 1515 1514 1513 1512 1511
1490 1495 1502 1508 1510 1504 1490 1486 1487 1504 1503 1496 1496 1497 1501 1503 1507 1511 1514 1516 1518 1519 1521 1522 1522 1523 1523 1523 1523 1522 1521 1521 1520 1519 1518 1517 1516 1515 1514 1513 1512 1510 1509 1508
1491 1497 1502 1507 1510 1506 1486 1486 1491 1492 1489 1492 1495 1497 1500 1503 1507 1510 1513 1515 1517 1519 1520 1521 1521 1522 1522 1522 1521 1521 1520 1519 1518 1517 1516 1515 1514 1513 1511 1510 1509 1507 1506 1504
1486 1487 1491 1495 1497 1488 1485 1484 1485 1486 1489 1492 1495 1498 1500 1503 1507 1510 1512 1515 1517 1518 1519 1520 1520 1520 1521 1520 1520 1519 1518 1517 1516 1515 1514 1512 1511 1510 1509 1507 1505 1504 1502 1500
1483 1482 1487 1491 1490 1487 1486 1485 1486 1488 1489 1492 1495 1498 1501 1504 1507 1509 1512 1514 1515 1517 1518 1518 1519 1519 1519 1519 1518 1517 1516 1515 1514 1513 1511 1510 1508 1507 1505 1504 1502 1501 1499 1497
1481 1482 1487 1491 1489 1488 1488 1487 1488 1490 1492 1495 1497 1500 1502 1504 1507 1509 1511 1513 1514 1515 1516 1517 1517 1517 1517 1517 1516 1515 1514 1513 1511 1510 1508 1507 1505 1503 1502 1500 1499 1497 1496 1494
1478 1480 1484 1487 1484 1485 1488 1488 1489 1491 1493 1496 1498 1501 1503 1504 1506 1508 1510 1512 1513 1514 1515 1515 1515 1515 1515 1514 1513 1512 1511 1510 1508 1507 1505 1503 1502 1500 1498 1496 1494 1492 1491 1489